Flag for Canada Weather past 2 weeks in Calgary, Alberta, Canada

Now
57 °F

Scattered clouds.


Feels Like: 55 °F
Forecast: 35 / 46 °F
Wind: 8 mph from South

Location: Calgary International

Current Time: Jan 25, 2015 at 1:36:20 PM

Latest Report: Jan 25, 2015 at 1:00 PM


Visibility: 40 mi

Pressure: 29.85 "Hg

Humidity: 41%

Dew point: 34 °F

Location of CalgaryLocation

Historic Weather in Calgary — Graph

°F

Calgary temperature yesterday

Maximum temperature yesterday: 52 °F (at 2:00 PM)
Minimum temperature yesterday: 37 °F (at 11:00 PM)
Average temperature yesterday: 45 °F

Past Weeks' High & Low Weather Summary

 TemperatureHumidityPressure
High55 °F (Jan 25, 12:00 PM)93% (Jan 18, 9:00 AM)30.47 "Hg (Jan 18, 9:00 AM)
Low-4 °F (Jan 12, 4:00 AM)25% (Jan 15, 3:00 PM)29.47 "Hg (Jan 16, 8:00 AM)
Average34 °F51%30.05 "Hg
* Reported Jan 10 12:00 Noon — Jan 25 12:00 Noon, Calgary, Weather by CustomWeather, © 2014

Note: Actual official high and low records may vary slightly from our data, if they occured in-between our weather recording intervals... More about our weather records

Advertising

Calgary weather history for previous 24 hours

 ConditionsComfort  
Time TempWeatherWind HumidityBarometerVisibility
12:00 PM
Jan 25
55 °FPartly sunny.6 mph41%29.88 "Hg40 mi
11:00 AM54 °FPartly sunny.8 mph41%29.87 "Hg40 mi
10:00 AM50 °FPartly sunny.9 mph43%29.87 "Hg40 mi
9:00 AM48 °FScattered clouds.8 mph46%29.87 "Hg40 mi
8:00 AM48 °FPassing clouds.7 mph46%29.86 "Hg40 mi
7:00 AM52 °FPassing clouds.14 mph41%29.82 "Hg15 mi
6:00 AM46 °FPartly cloudy.6 mph46%29.83 "Hg15 mi
5:00 AM46 °FPassing clouds.7 mph50%29.84 "Hg15 mi
4:00 AM46 °FPassing clouds.8 mph50%29.85 "Hg15 mi
3:00 AM50 °FPassing clouds.10 mph43%29.86 "Hg15 mi
2:00 AM39 °FPassing clouds.6 mph52%29.90 "Hg15 mi
1:00 AM34 °FPassing clouds.8 mph70%29.93 "Hg15 mi
12:00 AM34 °FPassing clouds.6 mph65%29.96 "Hg15 mi
11:00 PM
Jan 24
37 °FPassing clouds.5 mph52%29.98 "Hg15 mi
10:00 PM39 °FPassing clouds.3 mph48%30.02 "Hg15 mi
9:00 PM41 °FPartly cloudy.9 mph42%30.05 "Hg15 mi
8:00 PM39 °FPassing clouds.12 mph48%30.09 "Hg15 mi
7:00 PM43 °FPartly cloudy.5 mph36%30.09 "Hg15 mi
6:00 PM46 °FPassing clouds.12 mph27%30.10 "Hg20 mi
5:00 PM48 °FScattered clouds.10 mph25%30.11 "Hg40 mi
4:00 PM48 °FPartly sunny.12 mph25%30.07 "Hg40 mi
3:00 PM50 °FPartly sunny.13 mph28%30.06 "Hg40 mi
2:00 PM52 °FBroken clouds.20 mph26%30.06 "Hg40 mi
1:00 PM50 °FPartly sunny.23 mph28%30.06 "Hg40 mi
Weather by CustomWeather, © 2014

See weather overviewHow to use our weather pages